Wind_Speed
24 26 25 26 28 28 28 28 28 29 29 28 30 30 30 29 28 29 27 24 23 20 19 18 18 17 17 17 17 19 17 12 16 16 17 16 16 19 16 14 11 19 17 17 18
28 27 27 26 26 27 26 26 27 28 29 28 28 29 30 32 30 29 27 26 22 20 17 15 16 16 16 17 19 20 17 13 14 15 20 20 20 24 20 14 16 20 21 20 18
30 30 29 28 27 26 27 27 26 26 27 29 29 28 28 29 28 26 27 26 22 20 19 17 15 14 16 17 17 21 17 16 16 17 19 20 22 31 23 19 21 27 25 23 23
31 33 32 31 29 28 27 26 26 25 25 27 26 29 30 30 25 22 24 23 21 21 21 21 18 17 19 20 20 24 18 14 11 12 15 17 22 34 24 20 27 28 33 28 24
30 32 33 32 31 30 30 30 29 28 25 25 25 26 28 31 20 23 25 24 23 24 24 23 22 22 25 26 21 24 23 15 15 13 10 16 23 34 30 21 28 31 33 36 33
26 30 32 33 33 34 33 32 32 31 27 26 24 26 31 37 27 26 28 28 27 28 28 26 26 25 28 29 24 27 23 23 19 15 15 15 20 25 29 21 27 28 34 33 38
30 29 27 31 29 32 34 35 34 32 31 28 26 26 31 35 33 31 28 29 30 29 29 29 28 26 29 31 30 29 28 29 30 24 15 11 24 26 26 24 28 33 34 34 33
34 32 33 33 33 35 32 34 36 36 36 37 34 33 38 43 37 35 33 32 31 31 31 30 27 29 33 33 30 30 29 26 36 31 21 16 23 32 27 30 34 38 39 37 36
40 38 37 39 40 38 38 38 37 37 35 38 41 41 45 48 48 44 39 37 35 32 31 31 28 30 33 32 29 32 25 27 30 40 23 18 28 37 37 33 40 43 45 42 38
46 45 46 44 44 44 41 39 39 38 37 38 35 38 41 48 54 54 54 50 45 40 38 39 38 39 44 36 32 34 32 30 31 38 26 23 25 32 39 38 43 49 49 46 43
49 48 49 48 49 48 48 48 47 48 49 48 42 42 44 44 47 55 57 54 54 51 45 43 42 48 49 44 43 43 42 39 38 41 30 29 27 30 32 38 43 46 47 49 50
57 55 51 53 50 52 54 51 51 52 53 54 58 50 47 50 48 53 56 58 59 58 59 55 48 56 54 52 47 44 45 43 46 45 37 36 34 42 43 45 43 43 47 50 49
65 60 60 58 59 61 56 54 50 51 53 58 61 58 57 54 53 59 58 58 58 60 59 51 50 54 57 58 56 54 55 55 49 52 54 47 52 44 48 50 48 53 53 49 49
60 65 64 64 66 64 61 62 61 63 53 54 55 60 65 64 64 65 65 63 61 59 60 59 64 64 64 67 68 63 62 59 61 60 59 54 51 61 61 65 60 59 55 55 51
69 68 68 65 65 65 67 61 63 63 60 62 61 68 66 70 71 72 73 72 72 72 71 69 68 63 64 66 70 67 71 66 62 62 65 61 63 59 66 72 67 64 65 60 66
73 74 75 69 71 69 70 73 71 71 68 71 74 70 74 73 70 77 76 73 76 79 80 83 80 72 74 73 75 75 73 77 76 72 63 66 66 63 68 67 79 77 76 74 76
77 77 76 78 76 75 75 77 78 82 75 76 86 86 75 84 88 77 80 76 75 72 74 72 79 75 77 84 86 84 84 82 82 85 75 78 75 66 76 77 76 80 87 86 88
75 81 78 83 81 79 78 84 88 80 82 88 92 88 92 95 99 91 87 84 90 86 89 86 82 75 89 90 90 85 92 95 89 79 88 85 80 75 84 83 85 90 89 93 97
88 84 90 84 88 90 93 100 97 93 93 93 96 98 99 96 103 101 91 88 90 93 103 100 82 90 84 88 95 101 91 101 107 97 100 89 87 79 94 93 95 96 99 100 102
102 93 94 107 101 102 105 99 103 112 111 106 101 102 103 106 107 103 101 94 97 99 102 106 109 98 101 103 99 103 108 102 103 111 116 107 98 97 94 98 104 106 107 112 114
112 112 106 111 113 110 110 118 123 122 124 127 123 122 118 106 110 111 102 96 99 103 109 109 114 105 109 106 106 110 109 113 115 119 116 118 119 109 110 109 106 115 118 122 124
109 110 116 116 120 114 118 127 130 132 134 132 130 128 120 114 111 116 112 111 112 111 112 116 123 118 111 111 114 113 118 118 114 116 125 130 130 131 130 125 126 129 126 129 132
124 121 129 125 125 129 141 138 128 130 122 117 116 113 112 113 116 115 115 114 116 117 119 119 118 122 122 121 120 126 119 123 128 132 135 134 139 140 142 142 143 147 153 148 137
134 134 135 137 143 139 127 123 121 117 119 115 114 119 118 121 118 118 119 120 120 122 124 128 129 130 134 134 125 129 131 131 135 139 144 152 154 149 149 153 160 149 137 127 112
140 145 141 142 132 127 123 115 115 116 118 117 114 115 113 114 116 118 121 124 124 124 130 132 133 133 133 135 141 141 143 145 152 156 162 161 156 136 140 137 130 128 125 124 126
147 140 129 128 124 124 124 121 122 123 120 118 115 118 119 117 117 112 119 116 124 133 138 142 148 146 150 148 153 158 158 153 146 139 131 139 132 131 122 122 122 121 118 116 117
136 132 129 125 126 124 120 120 117 116 114 113 112 113 114 116 117 116 114 116 117 116 116 117 124 130 123 123 130 122 118 128 131 122 126 126 124 121 115 116 116 114 110 108 106
Wind_Direction
261 264 266 262 263 264 266 268 270 269 271 272 270 270 272 273 272 275 277 279 279 275 276 284 289 291 298 301 305 302 315 316 317 317 317 319 319 305 314 343 346 316 319 314 299
261 265 266 264 264 265 265 266 268 271 271 272 270 270 270 274 275 275 277 278 273 272 273 280 284 292 296 295 301 299 299 295 303 298 302 313 307 298 311 333 311 307 305 306 311
257 259 263 267 266 265 266 269 270 273 273 272 271 271 271 272 271 275 275 274 271 272 274 272 275 282 285 282 291 289 295 291 296 287 289 298 298 293 302 313 301 302 298 300 299
256 255 258 262 262 266 268 271 271 271 273 276 274 271 271 270 269 273 269 270 265 265 266 267 266 265 270 271 281 278 288 290 304 300 286 276 287 291 295 308 300 296 296 293 291
257 257 258 257 260 261 264 268 271 273 271 273 267 270 269 264 267 262 264 264 260 262 267 261 262 262 265 266 268 271 275 276 294 308 290 272 268 278 292 292 285 285 285 289 289
259 260 263 260 262 262 264 267 270 273 268 270 265 267 267 268 264 255 259 261 260 259 262 259 265 262 264 261 266 267 266 267 273 264 257 273 270 265 290 287 278 283 285 284 285
269 261 264 262 265 270 264 264 266 269 267 268 263 264 267 271 269 263 255 255 254 255 256 255 257 259 258 262 264 265 269 272 273 262 255 278 270 270 278 278 274 274 274 280 277
271 270 273 270 269 268 270 263 267 269 269 265 267 268 272 274 271 267 261 257 260 259 259 255 254 258 260 259 258 264 268 271 278 267 254 258 271 278 277 277 284 284 278 273 278
275 270 272 274 275 272 277 273 276 278 278 270 268 269 273 276 276 272 265 261 257 257 260 254 250 259 260 258 261 261 253 264 280 283 279 264 251 273 277 276 277 275 278 279 275
277 275 278 278 281 277 277 277 279 279 281 284 276 271 266 274 274 275 272 268 265 261 260 252 261 263 264 268 264 264 260 265 271 281 287 269 251 270 283 288 281 278 275 278 280
271 274 273 278 280 280 278 272 276 282 281 285 273 273 272 269 276 273 271 271 268 263 262 262 263 265 264 265 265 267 263 266 267 268 263 266 267 265 274 283 284 282 283 282 280
268 271 272 276 274 274 273 277 276 274 279 282 282 279 272 268 272 270 270 271 268 268 268 268 268 268 269 271 270 272 266 261 277 275 267 263 268 266 268 268 272 280 287 287 287
269 273 275 275 273 275 274 272 275 275 272 276 280 280 280 273 270 274 270 271 270 269 272 268 267 272 271 269 268 269 269 269 265 271 276 278 275 272 266 268 267 276 279 285 291
270 272 279 276 276 273 271 274 274 275 270 274 279 283 277 277 273 270 273 275 274 273 277 277 275 278 276 274 275 275 276 272 266 262 264 269 271 276 272 276 276 277 284 281 283
270 276 282 277 277 280 276 277 279 278 282 269 278 277 280 275 273 275 275 275 274 275 278 280 277 280 278 277 276 274 275 275 272 271 267 268 265 269 272 274 277 279 282 284 288
284 279 281 280 284 281 280 285 287 291 290 286 286 280 270 275 281 274 275 275 274 274 277 278 276 277 278 279 281 277 279 278 272 269 267 266 265 271 266 271 277 282 284 291 291
282 282 280 284 281 284 287 279 283 295 294 281 279 289 275 276 290 285 280 280 280 268 278 277 274 273 274 278 277 277 276 277 272 270 271 263 266 272 273 283 288 281 280 286 291
278 282 277 284 284 280 273 286 289 289 282 289 281 283 288 286 291 290 283 281 284 283 290 285 279 278 269 277 280 278 275 281 278 273 272 276 270 278 276 280 287 289 289 289 286
282 282 282 283 284 287 287 291 294 289 286 284 282 282 287 282 286 287 281 278 282 279 285 288 284 276 272 278 280 279 282 274 284 288 283 284 289 282 276 277 284 284 287 285 283
282 282 280 280 281 280 283 288 288 287 287 285 284 286 285 283 284 284 284 280 279 280 281 283 287 286 276 282 280 276 275 280 274 279 277 280 281 286 277 278 274 280 281 282 282
271 271 274 274 277 276 281 286 288 286 287 286 283 282 285 282 283 283 283 278 273 277 280 279 280 281 280 282 281 281 282 279 276 276 283 280 279 281 277 278 275 278 279 281 280
273 274 273 272 273 276 278 279 279 279 282 285 282 280 281 279 277 280 280 279 276 278 280 281 282 281 281 280 283 282 274 278 279 277 281 285 286 283 283 280 278 278 277 278 280
274 272 276 276 276 275 281 282 280 281 281 277 277 276 274 275 275 274 277 277 276 277 278 278 277 277 280 280 279 278 276 277 277 277 280 279 280 282 280 280 280 280 281 280 278
276 277 278 278 282 283 283 282 283 282 280 278 277 276 276 274 274 275 273 273 274 275 273 273 273 276 275 276 273 271 272 274 275 277 277 277 281 282 280 278 282 283 282 281 278
275 279 281 282 282 282 282 281 281 281 279 280 280 277 277 274 272 274 269 268 268 268 270 270 270 271 271 273 274 273 272 274 278 278 279 280 280 281 280 280 280 282 283 283 282
277 278 278 280 280 278 279 277 276 278 278 278 278 277 276 277 274 275 275 276 274 274 274 274 275 276 276 276 276 276 277 279 279 278 279 280 281 280 280 281 281 281 280 279 278
277 276 275 276 277 278 278 277 276 277 277 277 277 276 275 275 275 276 276 274 275 275 276 277 277 275 275 278 276 279 281 278 280 281 281 282 283 282 281 280 279 279 278 280 278
Height
10821 10822 10822 10822 10822 10822 10822 10823 10822 10822 10822 10821 10820 10819 10818 10817 10817 10816 10815 10815 10814 10814 10814 10813 10812 10810 10809 10808 10806 10804 10803 10803 10801 10798 10796 10795 10794 10791 10792 10792 10790 10785 10783 10781 10780
10815 10816 10817 10816 10816 10816 10816 10817 10817 10817 10817 10816 10815 10813 10813 10812 10812 10811 10810 10809 10809 10809 10809 10809 10808 10806 10805 10804 10802 10800 10800 10800 10799 10798 10794 10794 10792 10788 10789 10790 10786 10782 10781 10779 10778
10809 10809 10809 10810 10811 10811 10811 10811 10812 10811 10811 10811 10811 10808 10807 10806 10806 10806 10805 10805 10805 10805 10804 10804 10803 10802 10801 10799 10799 10796 10796 10796 10796 10795 10794 10792 10788 10782 10785 10787 10783 10777 10777 10775 10774
10802 10803 10803 10804 10804 10805 10805 10805 10805 10804 10805 10805 10804 10802 10800 10799 10801 10802 10800 10800 10801 10800 10799 10799 10799 10798 10796 10795 10794 10792 10793 10793 10792 10791 10790 10789 10785 10778 10781 10782 10778 10776 10770 10771 10770
10794 10796 10797 10797 10798 10799 10800 10799 10799 10800 10799 10799 10799 10797 10794 10791 10797 10795 10794 10794 10794 10794 10794 10794 10794 10793 10790 10788 10789 10786 10786 10787 10786 10786 10786 10785 10781 10771 10773 10778 10772 10769 10765 10762 10764
10789 10790 10790 10790 10791 10792 10793 10793 10793 10794 10794 10793 10793 10791 10788 10783 10789 10789 10787 10786 10786 10786 10787 10787 10786 10787 10783 10781 10783 10780 10781 10781 10781 10780 10779 10778 10773 10770 10766 10769 10765 10763 10757 10757 10753
10783 10784 10783 10784 10784 10786 10786 10785 10786 10788 10788 10788 10789 10786 10782 10777 10780 10782 10781 10779 10777 10778 10778 10778 10777 10777 10775 10775 10775 10776 10776 10774 10771 10773 10777 10776 10767 10763 10763 10762 10756 10752 10750 10748 10747
10774 10775 10775 10776 10775 10776 10777 10777 10778 10780 10781 10781 10782 10782 10777 10770 10773 10773 10773 10771 10771 10771 10771 10770 10770 10768 10765 10765 10768 10768 10769 10768 10757 10762 10770 10771 10765 10752 10756 10755 10748 10743 10741 10740 10739
10763 10764 10766 10767 10768 10769 10770 10770 10771 10771 10772 10773 10773 10774 10769 10764 10763 10763 10762 10762 10762 10761 10761 10761 10761 10759 10755 10756 10761 10759 10762 10760 10757 10748 10762 10763 10760 10747 10744 10746 10739 10733 10730 10732 10735
10751 10753 10754 10755 10757 10760 10761 10761 10762 10763 10764 10764 10765 10763 10762 10756 10752 10751 10751 10752 10753 10753 10753 10753 10754 10751 10744 10750 10752 10751 10752 10753 10752 10742 10750 10750 10751 10745 10735 10734 10727 10722 10721 10724 10726
10741 10742 10743 10744 10745 10747 10749 10749 10751 10753 10752 10752 10754 10752 10750 10748 10744 10737 10736 10738 10739 10741 10740 10742 10744 10738 10736 10738 10740 10740 10741 10742 10738 10738 10740 10737 10739 10734 10729 10720 10715 10712 10715 10713 10711
10730 10731 10731 10733 10732 10734 10734 10737 10739 10741 10743 10740 10739 10738 10738 10736 10734 10727 10722 10723 10724 10726 10726 10730 10735 10723 10725 10724 10726 10727 10729 10729 10733 10728 10732 10730 10728 10724 10718 10708 10705 10704 10703 10700 10701
10716 10717 10718 10719 10719 10720 10721 10723 10725 10727 10731 10726 10722 10725 10723 10720 10718 10712 10711 10710 10711 10712 10710 10716 10714 10710 10712 10708 10710 10712 10714 10716 10718 10717 10719 10722 10719 10713 10704 10695 10696 10693 10692 10691 10690
10700 10701 10702 10703 10705 10705 10706 10709 10710 10713 10714 10716 10712 10707 10702 10701 10697 10695 10694 10696 10697 10697 10695 10702 10695 10695 10695 10692 10690 10697 10691 10695 10698 10700 10705 10703 10709 10698 10693 10684 10685 10682 10681 10680 10677
10684 10684 10685 10685 10686 10688 10691 10691 10695 10694 10700 10697 10699 10695 10686 10682 10679 10677 10676 10678 10679 10679 10679 10681 10679 10678 10676 10671 10668 10675 10672 10673 10677 10678 10686 10687 10685 10683 10674 10668 10669 10671 10668 10665 10663
10665 10665 10665 10664 10665 10668 10669 10671 10674 10676 10682 10677 10675 10672 10668 10665 10665 10663 10662 10663 10662 10662 10663 10660 10662 10662 10656 10650 10647 10648 10650 10648 10650 10652 10665 10659 10662 10674 10653 10657 10649 10650 10645 10643 10637
10646 10647 10645 10643 10643 10645 10646 10649 10654 10660 10658 10654 10647 10645 10645 10645 10642 10644 10644 10646 10643 10638 10642 10642 10642 10643 10637 10629 10625 10623 10625 10621 10622 10622 10634 10630 10640 10650 10628 10631 10625 10620 10618 10620 10613
10625 10626 10625 10620 10619 10620 10623 10626 10636 10639 10629 10622 10623 10622 10625 10621 10617 10618 10619 10624 10616 10609 10615 10614 10627 10617 10621 10609 10603 10603 10598 10592 10575 10594 10602 10600 10622 10626 10601 10605 10601 10596 10595 10591 10591
10600 10601 10601 10594 10596 10595 10596 10604 10612 10605 10601 10594 10591 10595 10600 10596 10592 10591 10591 10597 10595 10587 10576 10580 10599 10592 10590 10586 10579 10577 10573 10562 10548 10555 10551 10579 10585 10595 10576 10576 10571 10568 10566 10564 10563
10574 10577 10579 10571 10576 10574 10577 10592 10586 10575 10570 10569 10567 10568 10572 10565 10560 10560 10563 10573 10571 10563 10551 10548 10548 10570 10561 10556 10560 10541 10544 10539 10533 10509 10513 10527 10543 10554 10552 10548 10544 10538 10534 10529 10527
10560 10560 10566 10551 10554 10558 10562 10559 10555 10548 10540 10544 10542 10541 10539 10534 10531 10527 10538 10540 10541 10532 10526 10522 10510 10544 10529 10534 10522 10512 10510 10505 10493 10489 10473 10474 10486 10512 10513 10513 10509 10509 10502 10497 10492
10531 10533 10539 10534 10530 10536 10542 10537 10537 10530 10520 10510 10509 10510 10508 10502 10503 10500 10506 10503 10507 10501 10498 10490 10473 10480 10501 10497 10495 10485 10474 10468 10460 10462 10449 10436 10438 10445 10453 10459 10466 10469 10464 10459 10455
10505 10504 10502 10506 10508 10504 10500 10505 10503 10495 10488 10483 10483 10479 10476 10475 10470 10474 10476 10476 10471 10469 10464 10460 10451 10444 10455 10465 10465 10446 10448 10443 10434 10423 10427 10418 10407 10411 10406 10405 10396 10400 10413 10420 10420
10473 10471 10472 10470 10473 10465 10458 10465 10464 10460 10454 10448 10447 10445 10443 10441 10440 10446 10445 10443 10444 10439 10436 10427 10424 10424 10414 10420 10426 10420 10412 10411 10406 10398 10393 10379 10378 10382 10370 10357 10358 10351 10343 10346 10359
10439 10437 10436 10433 10432 10429 10424 10433 10429 10422 10416 10414 10417 10409 10404 10407 10405 10408 10407 10409 10411 10409 10403 10389 10384 10390 10384 10382 10374 10375 10376 10382 10378 10361 10339 10349 10331 10339 10323 10316 10320 10316 10308 10304 10301
10406 10405 10398 10399 10401 10398 10394 10405 10396 10389 10388 10387 10383 10376 10372 10371 10365 10374 10368 10367 10373 10373 10362 10355 10344 10343 10347 10343 10333 10326 10337 10346 10327 10317 10301 10299 10294 10289 10291 10284 10280 10278 10273 10266 10262
10368 10370 10368 10372 10369 10367 10366 10363 10363 10359 10354 10354 10353 10347 10342 10338 10335 10335 10335 10335 10336 10337 10332 10317 10307 10302 10302 10298 10287 10290 10312 10288 10283 10286 10269 10259 10259 10251 10250 10245 10241 10238 10232 10233 10231